Lid_Strength_Index
2 4 4 4 4 4 3 2 6 0 -1 6 5 8 7 7 6 5 6 6 7 9 9 10 10 10 8 6 6 9 7 9 11 11 8 7 8 9 10 12 15 13 14 13
3 4 4 4 4 4 1 4 4 1 1 10 9 7 7 6 7 7 7 8 7 7 9 11 9 9 6 6 7 8 7 10 12 12 9 8 10 9 9 10 11 14 16 13
3 4 5 5 5 5 0 3 9 4 3 4 6 8 8 8 5 7 6 7 6 8 9 8 10 9 7 6 6 7 6 9 11 13 12 10 11 10 9 10 14 13 12 11
3 3 5 5 4 4 1 3 7 5 9 7 6 6 7 8 9 6 6 7 7 8 10 10 10 8 8 7 6 6 7 11 10 9 9 9 10 10 10 10 10 13 11 10
3 3 3 4 4 4 2 5 6 4 6 6 6 8 8 8 8 7 8 8 7 7 9 8 10 8 8 8 7 8 7 11 11 12 10 10 11 9 9 10 10 10 10 10
3 3 3 4 3 2 2 2 3 3 8 7 8 8 7 7 6 6 6 6 7 9 7 5 5 5 6 6 7 9 10 11 12 15 11 11 15 11 10 9 9 9 11 9
3 3 3 4 4 2 0 1 2 6 9 7 7 7 6 7 7 7 6 5 8 6 3 4 4 5 6 6 7 7 11 11 12 15 14 19 10 8 8 9 8 8 8 8
3 3 3 4 4 3 0 1 2 5 12 7 7 6 7 6 6 7 6 6 5 3 5 8 12 10 11 10 8 8 7 10 14 16 15 12 10 9 9 10 10 7 8 7
2 3 3 3 4 3 -0 1 2 3 9 8 5 6 6 8 8 7 7 4 4 4 7 10 16 14 11 11 10 9 9 9 12 14 18 18 10 8 7 7 12 7 6 7
2 2 3 3 4 3 -0 1 0 2 6 4 4 6 7 5 6 8 7 6 7 4 10 13 14 13 10 12 14 14 13 13 14 14 16 13 8 8 7 14 12 7 7 8
2 2 3 3 3 4 -0 1 -0 2 5 4 3 4 5 5 5 8 6 7 7 8 13 13 12 14 11 11 10 11 12 14 15 14 16 17 7 8 11 8 6 6 6 7
3 3 2 3 4 3 1 2 -0 0 3 4 2 2 1 2 2 4 5 6 6 6 9 10 10 12 12 12 13 8 12 9 10 11 11 6 6 6 5 4 5 7 7 8
3 3 2 3 3 3 1 1 -0 1 4 4 3 4 2 0 1 0 6 4 4 5 4 7 9 13 9 14 12 11 8 7 9 10 7 7 5 4 4 5 7 7 7 7
3 3 3 3 3 3 2 1 0 1 4 11 6 3 3 2 0 1 1 3 3 3 3 9 11 12 6 11 9 9 7 7 8 9 7 6 5 6 6 7 7 7 7 7
4 3 3 2 3 3 -0 -1 -0 -0 3 9 6 3 4 3 2 2 2 2 4 5 8 10 11 7 8 9 10 10 6 8 10 11 7 7 8 7 7 8 8 8 8 9
3 3 3 3 3 2 -0 3 -1 -1 -1 6 10 4 5 4 2 3 3 3 4 5 7 9 7 5 7 13 12 7 6 5 5 8 6 6 7 8 8 8 9 9 8 7
4 3 3 3 3 -1 2 4 2 2 -1 7 10 8 6 6 4 5 3 3 4 5 6 8 8 7 7 13 12 8 7 7 7 6 6 8 8 9 8 9 8 7 7 7
4 4 3 4 3 3 2 1 3 1 2 5 10 10 8 6 8 8 6 6 7 7 7 10 9 9 11 12 9 9 9 9 9 9 7 8 9 8 8 8 8 8 8 7
4 4 4 3 4 6 4 4 3 1 2 8 11 11 12 6 8 8 8 8 11 9 12 12 10 11 12 10 10 9 9 8 10 9 9 9 9 9 9 9 9 8 8 7
5 5 7 11 9 5 4 5 7 8 10 10 11 8 10 6 9 10 9 10 11 12 11 9 13 12 12 10 9 8 9 9 9 10 10 10 10 10 9 8 8 7 7 7
7 10 11 7 5 7 9 12 12 11 13 12 12 12 11 8 10 11 11 12 12 14 12 12 12 12 10 10 10 9 9 9 9 9 9 9 9 9 8 8 7 7 7 6
7 7 7 8 9 12 13 13 13 13 13 13 13 12 11 12 9 12 13 13 12 15 11 14 14 10 10 10 10 9 8 9 9 9 9 8 8 7 7 7 7 7 7 7
7 10 13 12 13 14 14 15 14 13 12 11 12 13 12 11 10 12 11 13 14 11 15 14 11 10 9 9 10 9 9 9 10 9 8 7 7 6 7 8 7 7 6 6
11 13 14 13 14 13 12 12 11 11 11 11 11 13 11 12 12 12 14 13 13 16 16 14 11 10 10 10 9 9 10 9 10 9 8 7 7 8 7 7 7 7 7 6
12 12 14 14 13 12 12 11 11 11 10 10 12 12 11 13 14 13 14 16 16 14 14 11 10 10 10 10 9 9 8 9 9 8 7 8 8 8 7 6 5 5 6 6
11 12 13 13 13 13 13 12 12 11 12 11 11 13 14 14 14 15 15 15 16 13 11 9 9 10 9 9 8 8 8 8 8 7 7 7 7 7 6 5 6 6 5 5
12 13 11 12 11 11 11 11 11 10 11 12 12 14 15 14 15 15 14 14 12 10 10 9 9 8 8 8 8 8 8 8 7 6 6 6 5 5 6 6 4 4 4 4